Location: ??
(34.7707°N, 135.6540°E)
Time: 06:22:00
(UTC+00:00)

Geosat - Pass Details

Date: 09 April 2020
Orbit: 763 x 766 km, 108.0° (Epoch: 24 May)

Event Time Altitude Azimuth Distance (km) Brightness Sun altitude
Rises 18:38:10 0° 28° (NNE) 3,236 8.1 -22.9°
Reaches altitude 10° 18:40:30 10° 32° (NNE) 2,306 7.3 -22.5°
Maximum altitude 18:45:28 60° 113° (ESE) 871 4.4 -21.6°
Enters shadow 18:48:24 24° 185° (S) 1,536 5.3 -21.1°
